Home > Weather > Passau > Past weeks

Flag for Germany Weather for the Past 2 Weeks in Passau, Bavaria, Germany

Now
34 °F

Chilly.


Feels Like: 34 °F
Forecast: 26 / 39 °F
Wind: 2 mph from West

Location: Rohrbach

Current Time: Feb 11, 2016 at 5:10:00 PM

Latest Report: Feb 11, 2016 at 4:00 PM


Visibility: N/A

Pressure: 29.79 "Hg

Humidity: 90%

Dew point: 31 °F

Location of PassauLocation

Historic Weather in Passau — Graph

°F

Passau Temperature Yesterday

Maximum temperature yesterday: 42 °F (at 12:00 AM)
Minimum temperature yesterday: 32 °F (at 9:00 AM)
Average temperature yesterday: 34 °F

High & Low Weather Summary for the Past Weeks

 TemperatureHumidityPressure
High50 °F (Feb 7, 3:00 PM)100% (Jan 29, 4:00 AM)30.46 "Hg (Jan 29, 4:00 AM)
Low28 °F (Feb 6, 8:00 AM)58% (Feb 8, 2:00 PM)29.23 "Hg (Feb 9, 10:00 PM)
Average38 °F88%30.03 "Hg
* Reported Jan 27 3:00 PM — Feb 11 3:00 PM, Passau, Weather by CustomWeather, © 2016

Note: Actual official high and low records may vary slightly from our data, if they occured in-between our weather recording intervals... More about our weather records

Advertising

Passau Weather History for the Previous 24 Hours

 ConditionsComfort  
Time TempWeatherWind HumidityBarometerVisibility
3:00 PM
Thu, Feb 11
34 °FSprinkles. Cloudy.2 mph92%29.79 "HgN/A
2:00 PM33 °FFog.2 mph95%29.80 "HgN/A
1:00 PM33 °FChilly.3 mph94%29.80 "HgN/A
12:00 PM33 °FFog.5 mph95%29.80 "HgN/A
11:00 AM32 °FFog.3 mph95%29.80 "HgN/A
10:00 AM32 °FChilly.3 mph96%29.79 "HgN/A
9:00 AM32 °FFog.2 mph97%29.78 "HgN/A
8:00 AM31 °FFog.3 mph96%29.75 "HgN/A
7:00 AM31 °FChilly.3 mph96%29.74 "HgN/A
6:00 AM32 °FFog.5 mph96%29.72 "HgN/A
5:00 AM33 °FFog.6 mph90%29.71 "HgN/A
4:00 AM32 °FChilly.5 mph90%29.69 "HgN/A
2:00 AM32 °FFog.3 mph90%29.66 "HgN/A
1:00 AMN/APassing clouds.1 mphN/AN/A14 mi
11:00 PM
Wed, Feb 10
32 °FFog.6 mph95%29.60 "HgN/A
10:00 PM32 °FChilly.5 mph95%29.59 "HgN/A
9:00 PM33 °FFog.6 mph91%29.57 "HgN/A
8:00 PM33 °FSprinkles. Overcast.5 mph90%29.56 "HgN/A
7:00 PMN/APassing clouds.No windN/AN/A1 mi
6:00 PM33 °FFog.3 mph93%29.50 "HgN/A
5:00 PM33 °FChilly.3 mph89%29.50 "HgN/A
Weather by CustomWeather, © 2016

See weather overviewHow to use our weather pages